Location: Wapato
(46.4478°N, 120.4212°W)
Time: 10:08:48
(UTC+00:00)

Injun/Solrad 3 - Pass Details

Date: 13 May 2026
Orbit: 867 x 989 km, 66.8° (Epoch: 10 June)

Event Time Altitude Azimuth Distance (km) Brightness Sun altitude
Rises 03:13:23 0° 284° (WNW) 3,580 13.1 1.0°
Reaches altitude 10° 03:17:15 10° 308° (NW) 2,666 12.3 0.4°
Maximum altitude 03:20:34 15° 340° (NNW) 2,367 10.8 -0.1°
Drops below altitude 10° 03:23:57 10° 13° (NNE) 2,712 10.6 -0.6°
Sets 03:27:57 0° 37° (NE) 3,682 10.9 -1.2°
